QPF
0.04 0.03 0.03 0.03 0.04 0.04 0.04 0.03 0.03 0.03 0.03 0.03 0.05 0.05 0.08 0.11 0.11 0.09 0.07 0.06 0.05 0.05 0.06 0.07 0.06 0.06 0.06 0.05 0.05 0.05 0.05 0.04 0.03 0.01 0.01 0.01 0.02 0.02 0.02 0.02 0.01 0.01 0.01
0.04 0.04 0.04 0.05 0.05 0.05 0.05 0.05 0.05 0.04 0.03 0.04 0.04 0.03 0.03 0.06 0.10 0.13 0.12 0.10 0.06 0.05 0.07 0.07 0.07 0.10 0.09 0.09 0.09 0.08 0.06 0.06 0.04 0.03 0.03 0.03 0.03 0.02 0.02 0.01 0.01 0.01 0.01
0.04 0.05 0.06 0.05 0.05 0.05 0.06 0.07 0.07 0.07 0.08 0.08 0.08 0.07 0.07 0.08 0.06 0.07 0.11 0.13 0.12 0.10 0.10 0.09 0.11 0.14 0.15 0.14 0.10 0.08 0.08 0.08 0.07 0.05 0.04 0.03 0.02 0.02 0.02 0.01 0.01 0.01 0.01
0.02 0.03 0.04 0.05 0.05 0.06 0.06 0.07 0.10 0.11 0.11 0.11 0.12 0.12 0.13 0.12 0.09 0.06 0.07 0.09 0.10 0.10 0.11 0.12 0.14 0.15 0.14 0.12 0.09 0.08 0.08 0.07 0.06 0.05 0.04 0.03 0.03 0.03 0.03 0.02 0.02 0.02 0.01
0.02 0.03 0.03 0.04 0.05 0.06 0.08 0.09 0.09 0.10 0.10 0.10 0.08 0.08 0.08 0.06 0.07 0.09 0.07 0.06 0.06 0.07 0.08 0.09 0.11 0.12 0.12 0.11 0.09 0.08 0.08 0.06 0.05 0.04 0.03 0.03 0.03 0.03 0.02 0.02 0.02 0.02 0.02
0.02 0.02 0.03 0.04 0.04 0.06 0.08 0.08 0.08 0.07 0.06 0.05 0.04 0.03 0.04 0.04 0.06 0.06 0.06 0.05 0.04 0.06 0.08 0.09 0.10 0.10 0.09 0.09 0.08 0.08 0.07 0.05 0.05 0.04 0.04 0.03 0.03 0.03 0.03 0.03 0.03 0.03 0.03
0.02 0.03 0.03 0.04 0.06 0.08 0.09 0.07 0.06 0.05 0.04 0.04 0.04 0.05 0.06 0.07 0.08 0.06 0.06 0.05 0.05 0.06 0.07 0.09 0.08 0.05 0.05 0.05 0.05 0.06 0.05 0.05 0.05 0.04 0.03 0.03 0.02 0.03 0.04 0.03 0.03 0.04 0.05
0.02 0.03 0.03 0.05 0.06 0.06 0.05 0.04 0.05 0.05 0.05 0.04 0.05 0.07 0.07 0.07 0.07 0.07 0.07 0.07 0.06 0.05 0.04 0.04 0.03 0.02 0.02 0.03 0.04 0.04 0.04 0.05 0.05 0.04 0.03 0.03 0.03 0.04 0.04 0.04 0.04 0.04 0.04
0.03 0.03 0.04 0.04 0.04 0.04 0.04 0.05 0.05 0.05 0.05 0.05 0.06 0.06 0.07 0.07 0.08 0.09 0.09 0.07 0.06 0.05 0.04 0.03 0.02 0.02 0.02 0.04 0.03 0.03 0.04 0.04 0.05 0.04 0.03 0.03 0.04 0.05 0.05 0.05 0.05 0.04 0.04
0.04 0.04 0.04 0.04 0.04 0.04 0.03 0.03 0.04 0.05 0.05 0.05 0.05 0.05 0.06 0.06 0.06 0.07 0.08 0.09 0.07 0.05 0.04 0.03 0.03 0.03 0.03 0.05 0.04 0.04 0.04 0.04 0.04 0.04 0.04 0.04 0.04 0.05 0.07 0.05 0.06 0.06 0.04
0.03 0.04 0.03 0.03 0.03 0.03 0.03 0.03 0.04 0.04 0.05 0.06 0.05 0.05 0.05 0.06 0.06 0.06 0.07 0.10 0.09 0.07 0.07 0.05 0.03 0.03 0.04 0.06 0.08 0.08 0.08 0.07 0.06 0.05 0.05 0.05 0.05 0.05 0.06 0.06 0.06 0.07 0.07
0.04 0.05 0.04 0.03 0.03 0.03 0.03 0.04 0.07 0.09 0.08 0.08 0.07 0.07 0.07 0.05 0.06 0.07 0.07 0.08 0.08 0.08 0.06 0.05 0.05 0.05 0.04 0.04 0.04 0.05 0.06 0.05 0.04 0.03 0.03 0.04 0.05 0.05 0.05 0.06 0.06 0.05 0.05
0.06 0.07 0.07 0.05 0.05 0.05 0.05 0.06 0.08 0.10 0.11 0.12 0.11 0.10 0.10 0.08 0.07 0.08 0.06 0.06 0.06 0.06 0.05 0.05 0.05 0.04 0.04 0.04 0.04 0.05 0.05 0.05 0.04 0.04 0.04 0.04 0.05 0.05 0.07 0.08 0.07 0.07 0.05
0.07 0.08 0.10 0.10 0.09 0.09 0.10 0.08 0.08 0.09 0.09 0.10 0.10 0.08 0.07 0.06 0.06 0.06 0.05 0.05 0.05 0.05 0.05 0.05 0.05 0.06 0.06 0.06 0.07 0.08 0.07 0.07 0.05 0.05 0.05 0.06 0.06 0.05 0.05 0.05 0.05 0.06 0.07
0.04 0.05 0.06 0.08 0.09 0.09 0.09 0.10 0.09 0.08 0.07 0.07 0.07 0.06 0.05 0.05 0.05 0.06 0.06 0.05 0.04 0.04 0.04 0.04 0.04 0.04 0.04 0.04 0.05 0.06 0.06 0.05 0.05 0.05 0.05 0.05 0.05 0.05 0.05 0.05 0.05 0.05 0.06
0.04 0.04 0.05 0.06 0.07 0.07 0.07 0.06 0.06 0.06 0.05 0.05 0.06 0.07 0.07 0.07 0.07 0.06 0.06 0.05 0.05 0.05 0.05 0.04 0.04 0.03 0.03 0.02 0.03 0.04 0.05 0.05 0.04 0.05 0.05 0.05 0.05 0.05 0.06 0.06 0.06 0.05 0.05
0.05 0.05 0.05 0.05 0.05 0.05 0.05 0.04 0.04 0.04 0.04 0.03 0.05 0.06 0.06 0.06 0.06 0.06 0.06 0.07 0.07 0.06 0.05 0.05 0.05 0.04 0.03 0.02 0.02 0.03 0.03 0.04 0.04 0.04 0.04 0.04 0.05 0.06 0.05 0.05 0.05 0.05 0.04
0.05 0.05 0.04 0.04 0.04 0.04 0.04 0.03 0.03 0.04 0.03 0.03 0.03 0.04 0.05 0.06 0.06 0.07 0.07 0.07 0.06 0.06 0.05 0.04 0.04 0.04 0.04 0.04 0.03 0.02 0.03 0.03 0.04 0.05 0.05 0.04 0.05 0.05 0.05 0.04 0.03 0.03 0.04
0.04 0.05 0.05 0.04 0.03 0.03 0.03 0.03 0.03 0.04 0.04 0.04 0.03 0.04 0.06 0.06 0.06 0.06 0.06 0.05 0.06 0.06 0.06 0.06 0.04 0.04 0.03 0.03 0.03 0.03 0.03 0.04 0.05 0.05 0.05 0.05 0.05 0.05 0.04 0.03 0.03 0.03 0.03
0.02 0.04 0.04 0.03 0.03 0.03 0.03 0.03 0.04 0.04 0.05 0.05 0.04 0.04 0.04 0.04 0.04 0.05 0.05 0.04 0.05 0.07 0.08 0.08 0.07 0.06 0.05 0.04 0.04 0.03 0.04 0.04 0.05 0.05 0.05 0.04 0.04 0.04 0.03 0.02 0.02 0.02 0.02
0.02 0.02 0.03 0.03 0.03 0.03 0.04 0.04 0.05 0.06 0.06 0.06 0.06 0.05 0.04 0.04 0.04 0.05 0.04 0.04 0.04 0.04 0.05 0.05 0.06 0.06 0.05 0.04 0.04 0.04 0.04 0.04 0.04 0.05 0.04 0.03 0.03 0.03 0.02 0.02 0.02 0.02 0.02
0.02 0.02 0.03 0.03 0.03 0.04 0.04 0.05 0.06 0.06 0.06 0.05 0.06 0.05 0.04 0.03 0.03 0.04 0.05 0.04 0.04 0.04 0.04 0.04 0.04 0.04 0.04 0.04 0.04 0.04 0.05 0.05 0.05 0.04 0.04 0.03 0.03 0.03 0.03 0.03 0.03 0.03 0.03
0.02 0.03 0.04 0.04 0.03 0.04 0.04 0.04 0.03 0.03 0.03 0.03 0.03 0.04 0.03 0.02 0.02 0.03 0.04 0.04 0.03 0.03 0.04 0.04 0.04 0.04 0.03 0.03 0.03 0.04 0.04 0.04 0.04 0.05 0.05 0.05 0.05 0.05 0.06 0.05 0.05 0.05 0.04
0.02 0.03 0.04 0.04 0.03 0.03 0.02 0.02 0.02 0.02 0.02 0.02 0.01 0.01 0.02 0.02 0.01 0.02 0.02 0.01 0.02 0.03 0.03 0.03 0.03 0.03 0.02 0.02 0.02 0.02 0.02 0.02 0.02 0.03 0.04 0.05 0.05 0.06 0.06 0.06 0.06 0.06 0.05
0.02 0.03 0.04 0.04 0.03 0.03 0.02 0.02 0.02 0.01 0.01 0.01 0.01 0.01 0.01 0.01 0.01 0.01 0.01 0.01 0.01 0.02 0.02 0.02 0.02 0.02 0.01 0.01 0.01 0.01 0.01 0.02 0.02 0.02 0.02 0.02 0.03 0.03 0.04 0.04 0.04 0.04 0.05
0.02 0.03 0.04 0.04 0.04 0.04 0.04 0.04 0.04 0.03 0.02 0.02 0.01 0.01 0.00 0.00 0.01 0.01 0.01 0.01 0.01 0.01 0.01 0.01 0.01 0.00 0.00 0.01 0.01 0.01 0.01 0.01 0.01 0.02 0.02 0.02 0.02 0.03 0.03 0.03 0.03 0.03 0.04
MSLP
1014.26 1014.68 1015.10 1015.48 1015.78 1015.97 1016.06 1016.05 1015.99 1015.91 1015.83 1015.77 1015.74 1015.71 1015.68 1015.63 1015.53 1015.40 1015.24 1015.08 1014.93 1014.83 1014.80 1014.83 1014.93 1015.08 1015.24 1015.39 1015.50 1015.55 1015.53 1015.43 1015.25 1015.01 1014.73 1014.40 1014.05 1013.68 1013.28 1012.87 1012.45 1012.01 1011.57
1014.35 1014.76 1015.17 1015.55 1015.86 1016.08 1016.19 1016.22 1016.19 1016.13 1016.07 1016.01 1015.97 1015.94 1015.90 1015.84 1015.75 1015.63 1015.48 1015.33 1015.20 1015.10 1015.06 1015.08 1015.15 1015.26 1015.40 1015.53 1015.63 1015.68 1015.68 1015.61 1015.48 1015.29 1015.04 1014.75 1014.41 1014.03 1013.61 1013.16 1012.68 1012.18 1011.67
1014.56 1014.95 1015.35 1015.71 1016.00 1016.20 1016.31 1016.34 1016.32 1016.26 1016.20 1016.14 1016.10 1016.07 1016.03 1015.98 1015.91 1015.82 1015.71 1015.59 1015.49 1015.41 1015.37 1015.38 1015.43 1015.52 1015.62 1015.72 1015.80 1015.84 1015.84 1015.80 1015.69 1015.54 1015.33 1015.06 1014.74 1014.37 1013.94 1013.47 1012.95 1012.41 1011.84
1014.80 1015.17 1015.53 1015.85 1016.10 1016.26 1016.35 1016.36 1016.33 1016.27 1016.20 1016.15 1016.11 1016.08 1016.06 1016.03 1015.99 1015.93 1015.87 1015.79 1015.73 1015.68 1015.66 1015.67 1015.70 1015.76 1015.83 1015.89 1015.94 1015.97 1015.96 1015.92 1015.83 1015.70 1015.52 1015.28 1014.98 1014.62 1014.20 1013.72 1013.20 1012.63 1012.03
1014.98 1015.33 1015.65 1015.92 1016.11 1016.23 1016.27 1016.26 1016.21 1016.15 1016.09 1016.04 1016.02 1016.00 1016.00 1015.99 1015.98 1015.96 1015.93 1015.90 1015.88 1015.86 1015.86 1015.87 1015.89 1015.93 1015.96 1015.99 1016.01 1016.00 1015.98 1015.93 1015.85 1015.74 1015.58 1015.36 1015.09 1014.76 1014.35 1013.89 1013.37 1012.80 1012.20
1015.04 1015.38 1015.66 1015.87 1016.02 1016.09 1016.10 1016.07 1016.01 1015.96 1015.91 1015.88 1015.86 1015.87 1015.88 1015.89 1015.90 1015.91 1015.91 1015.92 1015.92 1015.93 1015.94 1015.96 1015.97 1015.99 1015.99 1015.99 1015.97 1015.94 1015.89 1015.83 1015.75 1015.64 1015.49 1015.30 1015.06 1014.75 1014.38 1013.94 1013.44 1012.90 1012.31
1014.98 1015.30 1015.54 1015.72 1015.82 1015.85 1015.85 1015.81 1015.77 1015.73 1015.71 1015.70 1015.70 1015.72 1015.74 1015.76 1015.78 1015.80 1015.81 1015.83 1015.85 1015.88 1015.90 1015.92 1015.93 1015.93 1015.91 1015.88 1015.83 1015.77 1015.70 1015.62 1015.53 1015.42 1015.29 1015.11 1014.89 1014.62 1014.28 1013.87 1013.41 1012.89 1012.33
1014.82 1015.12 1015.33 1015.47 1015.55 1015.58 1015.57 1015.55 1015.54 1015.53 1015.53 1015.54 1015.56 1015.58 1015.59 1015.61 1015.61 1015.62 1015.63 1015.66 1015.68 1015.72 1015.75 1015.78 1015.79 1015.78 1015.75 1015.70 1015.63 1015.54 1015.45 1015.35 1015.24 1015.13 1015.00 1014.84 1014.64 1014.39 1014.08 1013.71 1013.28 1012.79 1012.25
1014.59 1014.87 1015.06 1015.18 1015.25 1015.29 1015.30 1015.32 1015.33 1015.36 1015.39 1015.41 1015.43 1015.44 1015.43 1015.42 1015.40 1015.39 1015.39 1015.40 1015.43 1015.48 1015.52 1015.56 1015.58 1015.58 1015.54 1015.48 1015.39 1015.28 1015.17 1015.05 1014.93 1014.80 1014.67 1014.52 1014.33 1014.10 1013.81 1013.47 1013.06 1012.60 1012.09
1014.31 1014.57 1014.75 1014.87 1014.95 1015.00 1015.05 1015.10 1015.16 1015.21 1015.25 1015.28 1015.29 1015.27 1015.23 1015.18 1015.13 1015.09 1015.08 1015.09 1015.13 1015.19 1015.25 1015.32 1015.35 1015.36 1015.33 1015.26 1015.15 1015.03 1014.89 1014.75 1014.61 1014.48 1014.34 1014.18 1013.99 1013.77 1013.50 1013.17 1012.78 1012.34 1011.83
1013.99 1014.23 1014.41 1014.54 1014.64 1014.73 1014.82 1014.90 1014.99 1015.05 1015.10 1015.11 1015.09 1015.04 1014.95 1014.87 1014.78 1014.72 1014.70 1014.73 1014.79 1014.87 1014.97 1015.06 1015.13 1015.15 1015.12 1015.05 1014.93 1014.79 1014.63 1014.47 1014.31 1014.15 1014.00 1013.83 1013.64 1013.42 1013.15 1012.82 1012.44 1012.00 1011.51
1013.62 1013.85 1014.04 1014.19 1014.33 1014.45 1014.57 1014.69 1014.79 1014.86 1014.89 1014.87 1014.81 1014.71 1014.59 1014.46 1014.36 1014.30 1014.29 1014.34 1014.43 1014.56 1014.70 1014.83 1014.92 1014.96 1014.93 1014.85 1014.71 1014.55 1014.36 1014.17 1013.99 1013.81 1013.64 1013.47 1013.27 1013.04 1012.77 1012.45 1012.06 1011.62 1011.13
1013.19 1013.43 1013.64 1013.82 1014.00 1014.16 1014.31 1014.45 1014.54 1014.60 1014.60 1014.54 1014.43 1014.29 1014.13 1013.99 1013.89 1013.84 1013.86 1013.95 1014.10 1014.28 1014.46 1014.62 1014.73 1014.77 1014.74 1014.63 1014.47 1014.27 1014.05 1013.83 1013.62 1013.43 1013.25 1013.07 1012.87 1012.64 1012.36 1012.04 1011.65 1011.21 1010.72
1012.72 1012.98 1013.22 1013.45 1013.66 1013.86 1014.03 1014.17 1014.26 1014.29 1014.25 1014.15 1014.00 1013.82 1013.64 1013.49 1013.40 1013.39 1013.45 1013.60 1013.79 1014.02 1014.24 1014.42 1014.53 1014.56 1014.50 1014.36 1014.16 1013.92 1013.66 1013.41 1013.18 1012.98 1012.79 1012.61 1012.42 1012.20 1011.93 1011.61 1011.23 1010.79 1010.30
1012.23 1012.52 1012.80 1013.07 1013.33 1013.55 1013.74 1013.88 1013.95 1013.94 1013.87 1013.72 1013.54 1013.34 1013.15 1013.02 1012.96 1012.99 1013.10 1013.30 1013.54 1013.80 1014.03 1014.21 1014.30 1014.29 1014.19 1013.99 1013.74 1013.45 1013.16 1012.88 1012.64 1012.44 1012.27 1012.10 1011.93 1011.74 1011.49 1011.19 1010.82 1010.38 1009.89
1011.73 1012.07 1012.40 1012.72 1013.01 1013.26 1013.46 1013.59 1013.64 1013.60 1013.49 1013.32 1013.11 1012.90 1012.73 1012.62 1012.59 1012.66 1012.82 1013.06 1013.32 1013.59 1013.81 1013.95 1014.00 1013.93 1013.76 1013.50 1013.19 1012.85 1012.53 1012.25 1012.01 1011.82 1011.68 1011.56 1011.43 1011.27 1011.06 1010.79 1010.44 1010.02 1009.54
1011.27 1011.65 1012.03 1012.39 1012.71 1012.98 1013.19 1013.31 1013.34 1013.28 1013.14 1012.95 1012.74 1012.54 1012.38 1012.30 1012.31 1012.42 1012.60 1012.85 1013.11 1013.35 1013.53 1013.62 1013.59 1013.45 1013.20 1012.88 1012.51 1012.14 1011.80 1011.52 1011.31 1011.16 1011.07 1011.00 1010.93 1010.83 1010.66 1010.43 1010.12 1009.72 1009.25
1010.84 1011.26 1011.68 1012.07 1012.41 1012.70 1012.90 1013.01 1013.03 1012.96 1012.81 1012.62 1012.41 1012.23 1012.10 1012.05 1012.08 1012.21 1012.40 1012.63 1012.86 1013.05 1013.16 1013.17 1013.05 1012.83 1012.51 1012.12 1011.72 1011.33 1011.00 1010.75 1010.58 1010.49 1010.46 1010.47 1010.46 1010.43 1010.32 1010.14 1009.86 1009.48 1009.02
1010.42 1010.88 1011.32 1011.72 1012.08 1012.36 1012.56 1012.66 1012.67 1012.60 1012.46 1012.28 1012.09 1011.93 1011.83 1011.80 1011.86 1011.98 1012.16 1012.35 1012.52 1012.64 1012.66 1012.57 1012.37 1012.07 1011.69 1011.27 1010.85 1010.47 1010.18 1009.97 1009.87 1009.85 1009.90 1009.98 1010.05 1010.08 1010.03 1009.89 1009.65 1009.30 1008.85
1009.99 1010.45 1010.90 1011.30 1011.65 1011.93 1012.12 1012.21 1012.22 1012.15 1012.03 1011.87 1011.72 1011.59 1011.52 1011.51 1011.56 1011.67 1011.81 1011.95 1012.05 1012.07 1012.01 1011.84 1011.56 1011.20 1010.78 1010.35 1009.95 1009.61 1009.37 1009.24 1009.21 1009.28 1009.41 1009.57 1009.71 1009.79 1009.79 1009.69 1009.47 1009.14 1008.70
1009.51 1009.96 1010.38 1010.77 1011.10 1011.36 1011.53 1011.62 1011.64 1011.58 1011.49 1011.36 1011.25 1011.15 1011.11 1011.11 1011.16 1011.24 1011.34 1011.41 1011.43 1011.37 1011.22 1010.98 1010.65 1010.25 1009.83 1009.42 1009.06 1008.79 1008.63 1008.58 1008.65 1008.80 1009.00 1009.22 1009.42 1009.54 1009.57 1009.49 1009.29 1008.98 1008.55
1008.96 1009.38 1009.77 1010.12 1010.42 1010.65 1010.81 1010.89 1010.92 1010.89 1010.82 1010.74 1010.66 1010.61 1010.59 1010.60 1010.64 1010.69 1010.73 1010.74 1010.69 1010.56 1010.34 1010.05 1009.69 1009.29 1008.89 1008.53 1008.25 1008.06 1007.99 1008.03 1008.18 1008.41 1008.67 1008.94 1009.16 1009.31 1009.36 1009.29 1009.10 1008.79 1008.37
1008.37 1008.74 1009.09 1009.39 1009.65 1009.85 1009.99 1010.08 1010.11 1010.11 1010.08 1010.05 1010.01 1010.00 1010.00 1010.02 1010.05 1010.07 1010.07 1010.01 1009.90 1009.71 1009.45 1009.13 1008.76 1008.39 1008.04 1007.74 1007.54 1007.44 1007.46 1007.59 1007.82 1008.10 1008.41 1008.70 1008.94 1009.09 1009.14 1009.07 1008.87 1008.57 1008.16
1007.82 1008.13 1008.43 1008.68 1008.89 1009.06 1009.19 1009.28 1009.33 1009.36 1009.37 1009.38 1009.39 1009.41 1009.44 1009.46 1009.48 1009.47 1009.43 1009.32 1009.16 1008.93 1008.64 1008.30 1007.95 1007.62 1007.32 1007.10 1006.98 1006.97 1007.07 1007.27 1007.55 1007.88 1008.21 1008.51 1008.74 1008.88 1008.92 1008.83 1008.64 1008.34 1007.95
1007.40 1007.66 1007.90 1008.10 1008.28 1008.42 1008.53 1008.62 1008.69 1008.75 1008.80 1008.85 1008.90 1008.95 1009.00 1009.03 1009.04 1009.01 1008.92 1008.78 1008.57 1008.30 1008.00 1007.66 1007.33 1007.03 1006.79 1006.64 1006.59 1006.65 1006.81 1007.07 1007.38 1007.73 1008.06 1008.35 1008.57 1008.70 1008.71 1008.61 1008.42 1008.13 1007.76
1007.21 1007.42 1007.61 1007.78 1007.92 1008.04 1008.14 1008.24 1008.32 1008.40 1008.49 1008.57 1008.66 1008.73 1008.79 1008.83 1008.82 1008.76 1008.64 1008.46 1008.21 1007.92 1007.59 1007.26 1006.94 1006.67 1006.47 1006.36 1006.36 1006.47 1006.68 1006.96 1007.29 1007.64 1007.96 1008.24 1008.44 1008.54 1008.54 1008.44 1008.24 1007.97 1007.62
Thickness
5776 5774 5772 5770 5768 5766 5764 5763 5761 5760 5759 5757 5755 5754 5753 5751 5750 5748 5747 5746 5744 5744 5743 5742 5742 5741 5739 5737 5735 5733 5731 5728 5725 5729 5729 5729 5728 5727 5727 5726 5725 5725 5725
5774 5771 5769 5768 5766 5763 5761 5760 5759 5757 5756 5754 5753 5752 5751 5749 5747 5745 5743 5743 5741 5740 5739 5738 5738 5737 5734 5733 5731 5729 5728 5726 5723 5722 5723 5722 5722 5722 5721 5720 5720 5720 5720
5770 5767 5765 5763 5762 5759 5757 5756 5754 5753 5751 5750 5749 5748 5746 5745 5743 5742 5740 5739 5738 5737 5736 5734 5734 5732 5729 5728 5727 5725 5723 5722 5720 5718 5717 5716 5716 5715 5714 5714 5714 5714 5714
5765 5762 5760 5758 5757 5755 5753 5751 5749 5747 5745 5744 5744 5744 5742 5740 5739 5738 5737 5736 5734 5733 5732 5731 5730 5728 5727 5725 5723 5721 5719 5716 5714 5711 5710 5709 5708 5708 5707 5706 5706 5707 5707
5759 5756 5755 5753 5751 5749 5747 5745 5744 5741 5739 5739 5738 5737 5736 5735 5734 5732 5732 5731 5729 5727 5727 5727 5726 5725 5723 5721 5719 5717 5715 5711 5708 5705 5703 5701 5701 5700 5699 5700 5699 5699 5700
5751 5749 5748 5746 5744 5742 5740 5739 5736 5734 5733 5732 5730 5730 5730 5730 5730 5728 5727 5725 5723 5722 5721 5721 5720 5719 5717 5715 5714 5712 5710 5706 5703 5699 5696 5695 5695 5694 5693 5692 5691 5690 5690
5744 5742 5740 5739 5737 5735 5733 5730 5728 5727 5726 5724 5724 5724 5723 5724 5723 5723 5722 5719 5717 5715 5714 5714 5713 5712 5710 5708 5706 5705 5703 5701 5700 5696 5692 5691 5690 5689 5686 5685 5684 5684 5684
5736 5735 5733 5731 5729 5727 5725 5721 5720 5719 5717 5717 5717 5717 5716 5717 5717 5716 5715 5712 5710 5708 5707 5707 5705 5703 5702 5700 5698 5696 5694 5693 5692 5690 5689 5688 5686 5684 5681 5680 5678 5677 5677
5727 5726 5725 5723 5721 5719 5717 5714 5712 5711 5710 5711 5710 5710 5709 5709 5708 5707 5706 5703 5701 5700 5700 5698 5697 5695 5694 5692 5689 5686 5685 5684 5684 5683 5682 5681 5679 5677 5675 5672 5670 5668 5668
5718 5717 5716 5714 5712 5711 5709 5706 5704 5703 5703 5703 5702 5702 5701 5701 5701 5699 5697 5695 5692 5691 5689 5688 5688 5686 5684 5682 5679 5677 5676 5676 5674 5673 5672 5671 5670 5668 5666 5665 5663 5660 5658
5710 5708 5707 5705 5703 5702 5700 5698 5697 5695 5694 5694 5693 5693 5692 5693 5692 5691 5689 5687 5685 5682 5681 5679 5678 5676 5675 5673 5670 5669 5669 5667 5665 5663 5662 5661 5661 5659 5658 5656 5655 5653 5650
5700 5698 5697 5696 5695 5693 5690 5689 5688 5687 5685 5684 5683 5682 5683 5683 5683 5682 5680 5679 5677 5674 5672 5671 5669 5667 5665 5664 5662 5661 5660 5657 5655 5654 5652 5651 5650 5649 5648 5646 5645 5643 5641
5690 5689 5687 5686 5685 5683 5682 5680 5678 5677 5675 5674 5673 5672 5672 5673 5673 5673 5672 5670 5667 5665 5663 5661 5659 5657 5655 5654 5653 5651 5649 5647 5645 5643 5642 5641 5640 5638 5637 5636 5635 5632 5630
5681 5680 5679 5678 5676 5674 5673 5672 5669 5668 5667 5665 5663 5663 5663 5664 5664 5662 5661 5659 5657 5655 5652 5650 5647 5646 5644 5643 5641 5640 5638 5637 5635 5633 5631 5630 5629 5628 5627 5626 5624 5622 5620
5672 5671 5670 5669 5667 5665 5664 5662 5661 5660 5658 5658 5657 5655 5654 5655 5655 5653 5651 5650 5648 5646 5642 5639 5638 5636 5634 5632 5630 5629 5627 5626 5624 5622 5620 5619 5618 5617 5616 5615 5613 5611 5610
5662 5662 5661 5660 5659 5657 5655 5653 5652 5650 5649 5648 5648 5646 5646 5645 5644 5642 5640 5640 5638 5635 5632 5631 5629 5627 5625 5624 5621 5619 5616 5614 5613 5611 5610 5609 5607 5606 5605 5603 5602 5601 5600
5654 5654 5653 5652 5651 5649 5646 5644 5642 5640 5638 5637 5636 5635 5634 5634 5632 5631 5630 5629 5627 5625 5624 5623 5620 5618 5616 5613 5611 5608 5607 5605 5603 5601 5600 5599 5598 5596 5594 5593 5592 5591 5590
5646 5646 5645 5643 5642 5640 5637 5636 5633 5630 5628 5627 5625 5623 5623 5623 5622 5621 5620 5619 5616 5615 5614 5613 5611 5609 5606 5604 5601 5599 5597 5595 5593 5592 5591 5589 5588 5586 5584 5583 5582 5580 5580
5637 5637 5636 5634 5632 5630 5628 5626 5624 5621 5619 5617 5614 5613 5612 5612 5611 5610 5609 5608 5607 5605 5603 5602 5600 5599 5596 5594 5592 5590 5588 5586 5585 5583 5582 5580 5578 5576 5575 5574 5572 5569 5568
5628 5629 5628 5625 5623 5620 5618 5617 5615 5612 5610 5607 5605 5603 5602 5601 5601 5599 5597 5596 5595 5594 5593 5591 5589 5588 5586 5584 5582 5580 5579 5577 5575 5573 5572 5571 5569 5567 5565 5564 5563 5561 5560
5619 5619 5618 5615 5613 5611 5610 5608 5605 5602 5600 5597 5595 5594 5592 5592 5591 5589 5587 5585 5585 5584 5583 5581 5579 5578 5576 5574 5573 5571 5570 5568 5566 5564 5563 5561 5559 5558 5557 5555 5554 5553 5551
5610 5608 5607 5605 5604 5602 5601 5599 5596 5593 5591 5589 5587 5585 5583 5582 5582 5581 5579 5578 5576 5575 5574 5572 5570 5568 5566 5565 5564 5562 5561 5559 5558 5556 5554 5552 5550 5549 5549 5547 5546 5544 5544
5601 5599 5597 5595 5594 5592 5591 5589 5587 5585 5583 5581 5579 5577 5576 5574 5573 5571 5570 5569 5568 5566 5564 5563 5561 5560 5558 5556 5555 5553 5552 5551 5549 5548 5546 5544 5542 5542 5541 5539 5538 5537 5536
5592 5591 5589 5588 5586 5584 5582 5580 5578 5576 5575 5573 5571 5569 5567 5566 5564 5563 5562 5560 5559 5557 5555 5554 5553 5551 5549 5548 5546 5544 5543 5542 5540 5539 5538 5536 5535 5534 5532 5531 5531 5530 5529
5584 5582 5581 5579 5578 5576 5574 5572 5570 5569 5567 5565 5563 5561 5560 5558 5556 5555 5553 5551 5550 5548 5546 5545 5544 5543 5541 5539 5538 5536 5535 5534 5532 5530 5529 5528 5527 5526 5524 5523 5523 5522 5521
5576 5575 5574 5572 5570 5568 5567 5565 5563 5561 5559 5557 5555 5553 5552 5550 5548 5547 5545 5543 5541 5540 5538 5537 5535 5534 5532 5531 5529 5528 5526 5525 5523 5521 5520 5519 5518 5517 5515 5514 5514 5514 5513